Alice Springs, Australia

9:35 PM ACST on October 15, 2019 (GMT +0930)
Alice Springs

Weather History for YBAS - August, 2019

Change the Weather History Date:

Wednesday, August 7, 2019

  Actual Average Record
Temperature  
Mean Temperature 66 °F -  
Max Temperature 82 °F 74 °F 82 °F (1999)
Min Temperature 50 °F 45 °F 30 °F (2015)
Cooling Degree Days 1    
Growing Degree Days 16 (Base 50)    
Moisture  
Dew Point 27 °F    
Average Humidity 22    
Maximum Humidity 41    
Minimum Humidity 6    
Precipitation  
Precipitation 0.00 in 0.02 in - ()
Sea Level Pressure  
Sea Level Pressure 29.94 in    
Wind  
Wind Speed 8 mph ()    
Max Wind Speed 20 mph    
Max Gust Speed 29 mph    
Visibility 6.2 miles    
Events      
Averages and records for this station are not official NWS values.
T = Trace of Precipitation, MM = Missing Value Source: Averaged Metar Reports

Daily Weather History Graph

Daily Weather History Graph

Search for Another Location

Airport or City:

Astronomy

Aug. 07, 2019 Rise Set
Actual Time 7:06 AM ACST 6:14 PM ACST
Civil Twilight 6:43 AM ACST 6:37 PM ACST
Nautical Twilight 6:16 AM ACST 7:04 PM ACST
Astronomical Twilight 5:49 AM ACST 7:31 PM ACST
Moon 11:40 AM ACST (8/7) No Moon Set
Length of Visible Light 11h 54m
Length of Day
11h 07m
Waxing Crescent, 43% of the Moon is Illuminated
Aug 7
Waxing Crescent
Aug 8
First Quarter
Aug 15
Full
Aug 24
Last Quarter
Aug 30
New

Hourly Weather History & Observations

Time (ACST) Temp. Dew Point Humidity Pressure Visibility Wind Dir Wind Speed Gust Speed Precip Events Conditions
12:00 AM 60 °F 31 °F 22% 29.97 in - North 6.9 mph - -   Clear
12:00 AM 60.8 °F 32.0 °F 34% 29.98 in 6.2 mi North 6.9 mph - N/A   Overcast
12:30 AM 58 °F 30 °F 23% 29.96 in - North 6.9 mph - -  
12:30 AM 59.0 °F 30.2 °F 34% 29.98 in 6.2 mi North 6.9 mph - N/A   Overcast
1:00 AM 57.2 °F 28.4 °F 33% 29.98 in 6.2 mi NW 3.5 mph - N/A   Overcast
1:30 AM 55.4 °F 26.6 °F 33% 29.98 in 6.2 mi NW 5.8 mph - N/A   Overcast
2:00 AM 55.4 °F 26.6 °F 33% 29.95 in 6.2 mi NW 5.8 mph - N/A   Mostly Cloudy
2:30 AM 55 °F 29 °F 24% 29.94 in - West 4.6 mph - -  
2:30 AM 55.4 °F 28.4 °F 36% 29.95 in 6.2 mi West 4.6 mph - N/A   Overcast
3:00 AM 58 °F 29 °F 22% 29.94 in - WNW 5.8 mph - -   Clear
3:00 AM 57.2 °F 30.2 °F 36% 29.95 in 6.2 mi WNW 5.8 mph - N/A   Overcast
3:30 AM 59.0 °F 30.2 °F 34% 29.95 in 6.2 mi North 5.8 mph - N/A   Overcast
4:00 AM 55.4 °F 28.4 °F 36% 29.95 in 6.2 mi SW 4.6 mph - N/A   Mostly Cloudy
4:30 AM 55.4 °F 30.2 °F 38% 29.95 in 6.2 mi NW 3.5 mph - N/A   Mostly Cloudy
5:00 AM 55.4 °F 30.2 °F 38% 29.95 in 6.2 mi North 1.2 mph - N/A   Overcast
5:30 AM 53 °F 28 °F 26% 29.92 in - North 4.6 mph - -  
5:30 AM 53.6 °F 28.4 °F 38% 29.95 in 6.2 mi North 4.6 mph - N/A   Overcast
6:00 AM 52 °F 29 °F 28% 29.93 in - North 4.6 mph - -   Clear
6:00 AM 51.8 °F 28.4 °F 41% 29.95 in 6.2 mi North 4.6 mph - N/A   Overcast
6:30 AM 52 °F 28 °F 27% 29.94 in - SSW 4.6 mph - -  
6:30 AM 51.8 °F 28.4 °F 41% 29.95 in 6.2 mi SSW 4.6 mph - N/A   Overcast
7:00 AM 51.8 °F 28.4 °F 41% 29.95 in 6.2 mi Calm Calm - N/A   Overcast
7:30 AM 51.8 °F 26.6 °F 38% 29.98 in 6.2 mi Calm Calm - N/A   Mostly Cloudy
8:00 AM 53.6 °F 30.2 °F 41% 29.98 in 6.2 mi WNW 1.2 mph - N/A   Scattered Clouds
8:17 AM 62.6 °F 33.8 °F 34% 29.98 in 6.2 mi WNW 4.6 mph - N/A   Scattered Clouds
8:30 AM 66 °F 34 °F 19% 29.96 in - NNW 5.8 mph - -  
8:30 AM 66.2 °F 33.8 °F 30% 29.98 in 6.2 mi NNW 5.8 mph - N/A   Scattered Clouds
9:00 AM 68 °F 33 °F 17% 29.96 in - NNW 12.7 mph - -   Clear
9:00 AM 68.0 °F 33.8 °F 28% 29.98 in - NNW 12.7 mph - N/A   Clear
9:30 AM 71 °F 34 °F 15% 29.97 in - NNW 10.4 mph - -  
9:30 AM 69.8 °F 33.8 °F 27% 29.98 in - NNW 10.4 mph - N/A   Clear
10:00 AM 73.4 °F 33.8 °F 23% 29.98 in - NNW 10.4 mph - N/A   Clear
10:30 AM 75.2 °F 32.0 °F 21% 29.98 in - NW 9.2 mph - N/A   Clear
11:00 AM 75.2 °F 30.2 °F 19% 29.98 in - WNW 10.4 mph - N/A   Clear
11:30 AM 80 °F 31 °F 9% 29.94 in - WNW 13.8 mph - -  
11:30 AM 78.8 °F 30.2 °F 17% 29.95 in - WNW 13.8 mph - N/A   Clear
12:00 PM 79 °F 29 °F 8% 29.93 in - WNW 10.4 mph - -   Clear
12:00 PM 78.8 °F 28.4 °F 16% 29.95 in 6.2 mi WNW 10.4 mph - N/A   Mostly Cloudy
12:30 PM 80 °F 27 °F 7% 29.92 in - WNW 19.6 mph - -  
12:30 PM 80.6 °F 26.6 °F 14% 29.95 in 6.2 mi WNW 19.6 mph - N/A   Scattered Clouds
1:00 PM 80.6 °F 26.6 °F 14% 29.92 in 6.2 mi West 19.6 mph - N/A   Unknown
1:30 PM 80.6 °F 24.8 °F 13% 29.89 in 6.2 mi WNW 19.6 mph - N/A   Scattered Clouds
1:45 PM 80.6 °F 24.8 °F 13% 29.89 in 6.2 mi WNW 17.3 mph 28.8 mph N/A   Scattered Clouds
2:00 PM 80.6 °F 26.6 °F 14% 29.89 in 6.2 mi West 17.3 mph - N/A   Scattered Clouds
2:30 PM 80.6 °F 24.8 °F 13% 29.89 in 6.2 mi WNW 17.3 mph - N/A   Unknown
3:00 PM 80 °F 27 °F 7% 29.86 in - WNW 18.4 mph - -   Clear
3:00 PM 80.6 °F 26.6 °F 14% 29.86 in 6.2 mi WNW 18.4 mph - N/A   Scattered Clouds
3:30 PM 80 °F 25 °F 6% 29.85 in - WNW 18.4 mph - -  
3:30 PM 80.6 °F 24.8 °F 13% 29.86 in 6.2 mi WNW 18.4 mph - N/A   Scattered Clouds
4:00 PM 82.4 °F 26.6 °F 13% 29.86 in 6.2 mi WSW 15.0 mph - N/A   Scattered Clouds
4:30 PM 80.6 °F 26.6 °F 14% 29.86 in 6.2 mi WNW 17.3 mph - N/A   Scattered Clouds
5:00 PM 80.6 °F 24.8 °F 13% 29.86 in 6.2 mi WSW 17.3 mph - N/A   Mostly Cloudy
5:30 PM 79 °F 24 °F 6% 29.86 in - WSW 13.8 mph - -  
5:30 PM 78.8 °F 24.8 °F 14% 29.86 in 6.2 mi WSW 13.8 mph - N/A   Scattered Clouds
6:00 PM 78 °F 25 °F 7% 29.87 in - WSW 12.7 mph - -   Clear
6:00 PM 78.8 °F 24.8 °F 14% 29.89 in 6.2 mi WSW 12.7 mph - N/A   Mostly Cloudy
6:30 PM 76 °F 23 °F 7% 29.88 in - SW 11.5 mph - -  
6:30 PM 75.2 °F 23.0 °F 14% 29.89 in 6.2 mi SW 11.5 mph - N/A   Scattered Clouds
7:00 PM 73.4 °F 23.0 °F 15% 29.92 in 6.2 mi WSW 12.7 mph - N/A   Unknown
7:30 PM 68.0 °F 23.0 °F 18% 29.95 in 6.2 mi SW 8.1 mph - N/A   Unknown
8:00 PM 68.0 °F 23.0 °F 18% 29.95 in 6.2 mi SW 6.9 mph - N/A   Unknown
8:30 PM 65 °F 23 °F 11% 29.95 in - WSW 5.8 mph - -  
8:30 PM 66.2 °F 23.0 °F 19% 29.95 in 6.2 mi WSW 5.8 mph - N/A   Unknown
9:00 PM 64 °F 23 °F 11% 29.96 in - West 5.8 mph - -   Clear
9:00 PM 64.4 °F 23.0 °F 21% 29.98 in 6.2 mi West 5.8 mph - N/A   Unknown
9:30 PM 64 °F 23 °F 11% 29.97 in - West 5.8 mph - -  
9:30 PM 64.4 °F 23.0 °F 21% 29.98 in 6.2 mi West 5.8 mph - N/A   Unknown
10:00 PM 62.6 °F 23.0 °F 22% 29.98 in 6.2 mi West 5.8 mph - N/A   Scattered Clouds
10:30 PM 59.0 °F 23.0 °F 25% 30.01 in 6.2 mi WSW 5.8 mph - N/A   Scattered Clouds
11:00 PM 59.0 °F 23.0 °F 25% 30.01 in 6.2 mi WSW 4.6 mph - N/A   Scattered Clouds
11:30 PM 60 °F 24 °F 15% 30.00 in - WSW 5.8 mph - -  
11:30 PM 60.8 °F 24.8 °F 25% 30.01 in 6.2 mi WSW 5.8 mph - N/A   Overcast